TRSI-3 (52418 NORAD) Tracking and Keplerian Element Data
This shows tracking and keplerian element data for the satellite.
Feedback or suggestion? Click here.
Element | Value |
Catalog | 52418 |
Name | TRSI-3 |
Epoch Orbit | 801 |
Epoch Day | 166.23671338 |
Epoch Year | 2022 |
RAAN | 251.151 |
Inclination | 97.4493 |
Eccentricity | 0.0009874 |
Argument of Perigee | 178.8325 |
Mean Anonmoly | 181.2931 |
Mean Motion | 15.13186858 |
Decay Rate | 7.982E-05 |
L1 | 1 52418U 22047AA 22166.23671338 .00007982 00000+0 45275-3 0 9996 |
L2 | 2 52418 97.4493 251.1510 0009874 178.8325 181.2931 15.13186858 8015 |
Live tracking and technical data element details for TRSI-3 (NORAD 52418). TRSI-3 can be tracked NOW for your location showing map with azimuth and elevation plus other details from your city location.
Track the satellite on the map from your city or location and see movement details for azimuth, elevation, latitude, longitude, range, height, and movement on the map or in text.
IsCatalogInMostPopularTable: catalog: 52418, numindb: 1
Update: records affected: 1
GetName: 52418 TRSI-3
Hit Count: updated at: Sat, 25 Jun 2022 05:31:16 GMT